This is the latest recevied weather packets stored in our database for station/object N5JXS. If no packets are shown the sender has not sent any weather packets the latest 1 day(s).
| Time | Temp. | Humidity | Pressure | Rain* | Wind** | Luminosity | Snow |
|---|---|---|---|---|---|---|---|
| 1778096748 | 0° C | 86% | 1020.9 hPa | 0 mm | - | 419 W/m² | - |
| 1778094624 | 0° C | 85% | 1020.6 hPa | 0 mm | - | 146 W/m² | - |
| 1778092807 | 0° C | 85% | 1021 hPa | 0 mm | - | 176 W/m² | - |
| 1778089473 | -1.11° C | 90% | 1020.9 hPa | 0 mm | - | 70 W/m² | - |
| 1778085530 | -2.22° C | 94% | 1020.6 hPa | 0 mm | - | 38 W/m² | - |
| 1778085224 | -2.22° C | 94% | 1020.4 hPa | 0 mm | - | 34 W/m² | - |
| 1778084315 | -2.78° C | 94% | 1020.4 hPa | 0 mm | - | 31 W/m² | - |
| 1778083105 | -2.78° C | 93% | 1020.1 hPa | 0 mm | - | 39 W/m² | - |
| 1778081371 | -2.22° C | 92% | 1019.9 hPa | 0 mm | - | 42 W/m² | - |
| 1778080766 | -2.22° C | 93% | 1019.7 hPa | 0 mm | - | 65 W/m² | - |
| 1778080463 | -2.22° C | 93% | 1019.6 hPa | 0 mm | - | 60 W/m² | - |
| 1778080161 | -2.22° C | 93% | 1019.6 hPa | 0 mm | - | 62 W/m² | - |
| 1778077133 | -2.78° C | 94% | 1019.2 hPa | 0 mm | - | 51 W/m² | - |
| 1778076225 | -3.33° C | 94% | 1019.1 hPa | 0 mm | - | 35 W/m² | - |
| 1778075922 | -3.33° C | 95% | 1019.2 hPa | 0 mm | - | 28 W/m² | - |
| 1778074102 | -3.33° C | 96% | 1019 hPa | 0 mm | - | 36 W/m² | - |
| 1778073193 | -3.89° C | 96% | 1018.7 hPa | 0 mm | - | 32 W/m² | - |
| 1778072285 | -3.89° C | 96% | 1018.2 hPa | 0 mm | - | 10 W/m² | - |
| 1778071983 | -3.89° C | 96% | 1018.2 hPa | 0 mm | - | 11 W/m² | - |
| 1778071681 | -3.89° C | 96% | 1018.4 hPa | 0 mm | - | 9 W/m² | - |
| 1778071378 | -3.89° C | 96% | 1018.4 hPa | 0 mm | - | 4 W/m² | - |
| 1778070774 | -3.89° C | 97% | 1018.4 hPa | 0 mm | - | 4 W/m² | - |
| 1778069562 | -3.89° C | 97% | 1017.7 hPa | 0 mm | - | 0 W/m² | - |
| 1778067446 | -3.89° C | 97% | 1017.7 hPa | 0 mm | - | 0 W/m² | - |
| 1778066234 | -3.89° C | 97% | 1017.3 hPa | 0 mm | - | 0 W/m² | - |
* Rain latest hour (hover to see other rain measurements)
** Current wind speed in m/s (hover to see current wind gust speed)